Location: Unspecified
(47.7670°N, 8.8522°E)
Time: 09:51:26
(UTC+02:00)

Envisat - Visible Passes

Search period start: 19 April 2025 00:00
Search period end: 29 April 2025 00:00
Orbit: 761 x 763 km, 98.3° (Epoch: 18 April)

Date Brightness Start Highest point End Pass type
(mag) Time Alt. Az. Time Alt. Az. Time Alt. Az.
19 Apr 5.5 02:52:15 10° ENE 02:54:08 12° E 02:56:01 10° ESE visible
19 Apr 3.0 04:28:45 10° NNE 04:33:51 85° ESE 04:37:12 22° SSW visible
20 Apr 4.0 03:51:17 10° NNE 03:56:04 40° E 03:59:11 20° SSE visible
20 Apr 4.0 05:30:29 10° N 05:34:53 30° WNW 05:39:16 10° SW visible
21 Apr 5.1 03:14:26 10° NE 03:18:05 20° E 03:21:11 12° SE visible
21 Apr 3.1 04:52:26 10° N 04:57:26 61° WNW 05:01:19 17° SSW visible
22 Apr 3.3 04:14:44 10° NNE 04:19:47 65° ESE 04:23:18 20° S visible
23 Apr 4.5 03:37:27 10° NNE 03:41:56 31° E 03:45:17 16° SSE visible
23 Apr 3.6 05:16:15 10° N 05:20:57 39° WNW 05:25:26 11° SW visible
24 Apr 5.4 03:01:02 10° NE 03:03:51 15° E 03:06:40 10° ESE visible
24 Apr 2.9 04:38:19 10° NNE 04:43:25 80° WNW 04:47:24 17° SSW visible
25 Apr 3.7 04:00:46 10° NNE 04:05:41 49° E 04:09:23 17° S visible
25 Apr 4.2 05:40:14 10° N 05:44:22 26° WNW 05:48:29 10° WSW visible
26 Apr 4.9 03:23:42 10° NE 03:27:45 24° E 03:31:21 12° SE visible
26 Apr 3.3 05:02:04 10° N 05:06:58 51° WNW 05:11:30 12° SW visible
27 Apr 5.6 02:48:18 10° ENE 02:49:36 11° E 02:50:53 10° E visible
27 Apr 3.1 04:24:16 10° NNE 04:29:22 79° ESE 04:33:29 16° S visible
28 Apr 4.2 03:46:51 10° NNE 03:51:34 37° E 03:55:26 14° SSE visible
28 Apr 3.9 05:25:57 10° N 05:30:26 33° WNW 05:34:55 10° SW visible
